Location: Barcelona
(41.3830°N, 2.1830°E)
Time: 20:57:28
(UTC+01:00)

DELFI C3 - Visible Passes

Search period start: 18 March 2019 00:00
Search period end: 28 March 2019 00:00
Orbit: 536 x 556 km, 97.5° (Epoch: 17 March)

Date Brightness Start Highest point End Pass type
(mag) Time Alt. Az. Time Alt. Az. Time Alt. Az.
18 Mar ? 21:29:52 30° NNW 21:29:52 30° NNW 21:31:58 10° NNW visible
19 Mar ? 21:24:13 34° NNW 21:24:13 34° NNW 21:26:30 10° NNW visible
20 Mar ? 21:18:35 37° N 21:18:35 37° N 21:21:02 10° N visible
21 Mar ? 21:12:56 40° N 21:12:56 40° N 21:15:32 10° N visible
22 Mar ? 21:07:17 41° NNE 21:07:17 41° NNE 21:10:02 10° N visible
23 Mar ? 21:01:38 40° NNE 21:01:38 40° NNE 21:04:31 10° N visible
24 Mar ? 20:55:59 38° NE 20:55:59 38° NE 20:58:59 10° N visible
24 Mar ? 22:31:36 11° WNW 22:31:36 11° WNW 22:32:07 10° WNW visible
25 Mar ? 20:50:20 35° NE 20:50:20 35° NE 20:53:25 10° N visible
25 Mar ? 22:25:57 13° WNW 22:25:57 13° WNW 22:27:00 10° NW visible
26 Mar ? 20:44:41 31° ENE 20:44:41 31° ENE 20:47:51 10° N visible
26 Mar ? 22:20:18 16° WNW 22:20:18 16° WNW 22:21:48 10° NW visible
27 Mar ? 20:39:02 28° ENE 20:39:02 28° ENE 20:42:16 10° NNE visible
27 Mar ? 22:14:39 18° WNW 22:14:39 18° WNW 22:16:32 10° NW visible
